Location: Walton
(43.6794°N, 81.3017°W)
Time: 03:26:45
(UTC+00:00)

USA 215 - Pass Details

Date: 09 December 2025
Orbit: 1098 x 1109 km, 123.0° (Epoch: 10 January)

Event Time Altitude Azimuth Distance (km) Brightness Sun altitude
Exits shadow 00:29:21 39° 17° (NNE) 1,586 3.9 -28.3°
Drops below altitude 10° 00:35:03 10° 316° (NW) 2,963 5.9 -29.3°
Sets 00:37:41 0° 310° (NW) 3,921 6.8 -29.8°
